Tracking 28794 objects as of 20-Apr-2024
HD Live streaming from Space Station
objects crossing your sky now

COSMOS 2303

Track COSMOS 2303 now!
10-day predictions
COSMOS 2303 is classified as:


NORAD ID: 23445
Int'l Code: 1994-086E
Perigee: 1,419.1 km
Apogee: 1,436.7 km
Inclination: 82.6 °
Period: 114.2 minutes
Semi major axis: 7798 km
RCS: 1.1077 m2 (large)
Launch date: December 26, 1994
Source: Commonwealth of Independent States (former USSR) (CIS)
Launch site: PLESETSK MISSILE AND SPACE COMPLEX (PKMTR)
Your satellite tracking list
Your tracking list is empty




NASA's NSSDC Master Catalog

Two Line Element Set (TLE):
1 23445U 94086E   24111.11861458  .00000053  00000-0  24553-3 0  9998
2 23445  82.5705 127.4918 0011233 180.6826 241.3016 12.60528754348888
Source of the keplerian elements: AFSPC